User: anonymous
Location: Columbia
(38.9520°N, 92.3340°W)
Time: 19:51:19
(UTC-05:00)
Language:

Iridium 22 - Orbit

View from above orbital plane
View from above orbital plane
View from above satellite
View from above satellite

Ground track
Ground track

The orbit data is extracted from the following two-line orbital elements,

1 24907U 97043E   14258.29042557  .00000350  00000-0  11782-3 0  9630
2 24907 086.3979 316.4708 0002369 109.4514 359.8712 14.34218502893655
Epoch (UTC): 15 September 2014 06:58:12
Eccentricity: 0.0002369
inclination: 86.3979°
perigee height: 776 km
apogee height: 779 km
right ascension of ascending node: 316.4708°
argument of perigee: 109.4514°
revolutions per day: 14.34218502
mean anomaly at epoch: 359.8712°
orbit number at epoch: 89365

The dashed part of the orbit path shows where the satellite is in the earth's shadow,  

DLR